Voltar ao catálogo

COSMOS 886 DEB

AtivoLEO
NORAD 9723·DEBRIS·🇷🇺 Russia

Lançado Dec 27, 1976 de Baikonur Cosmodrome

Loading…

Próximas Passagens (próximas 24 horas)

TLE

AtualizadoSource: Space-Track

Época: Sep 14, 2026, 09:48 UTC

1 09723U 76126U   26257.40859884  .00002328  00000-0  21823-2 0  9994
2 09723  65.7549  36.0651 0693829 245.9276 106.7689 13.07349218310539

Acompanhe COSMOS 886 DEB em tempo real com AllMySat

Download on the App Store